Weather History for Wichita, KS

Change the Weather History Date:

Thursday, January 17, 2013

  Actual Average Record
Temperature  
Mean Temperature 43 °F 32 °F  
Max Temperature 56 °F 42 °F 66 °F (1923)
Min Temperature 29 °F 22 °F -12 °F (1930)
Degree Days  
Heating Degree Days 22 33  
Month to date heating degree days 531 561  
Since 1 July heating degree days 2095 2404  
Cooling Degree Days 0 0  
Month to date cooling degree days 0 0  
Year to date cooling degree days 0 0  
Moisture  
Dew Point 28 °F    
Average Humidity 60    
Maximum Humidity 85    
Minimum Humidity 35    
Precipitation  
Precipitation 0.00 in 0.02 in 1.40 in (2004)
Month to date precipitation 0.53 0.40  
Year to date precipitation 0.53 0.40  
Snow  
Snow 0.00 in 0.10 in 6.20 in (1987)
Month to date snowfall 0.7 1.8  
Since 1 July snowfall 3.2 7.4  
Snow Depth 0.00 in    
Sea Level Pressure  
Sea Level Pressure 30.44 in    
Wind  
Wind Speed 7 mph (NW)    
Max Wind Speed 17 mph    
Max Gust Speed 23 mph    
Visibility 10 miles    
Events      
T = Trace of Precipitation, MM = Missing Value Source: NWS Daily Summary

Daily Weather History Graph

Daily Weather History Graph

Search for Another Location

Airport:

Trip Planner

Search our weather history database for the weather conditions in past years. The results will help you decide how hot, cold, wet, or windy it might be!

Date:

Astronomy

Jan. 17, 2013 Rise Set
Actual Time 7:42 AM CST 5:37 PM CST
Civil Twilight 7:14 AM CST 6:05 PM CST
Nautical Twilight 6:42 AM CST 6:38 PM CST
Astronomical Twilight 6:10 AM CST 7:09 PM CST
Moon 10:58 AM CST (1/17) No Moon Set
Length of Visible Light 10h 51m
Length of Day
9h 54m
Waxing Crescent, 38% of the Moon is Illuminated
Jan 17
Waxing Crescent
Jan 18
First Quarter
Jan 26
Full
Feb 3
Last Quarter
Feb 10
New

Hourly Weather History & Observations

Time (CST) Temp. Windchill Dew Point Humidity Pressure Visibility Wind Dir Wind Speed Gust Speed Precip Events Conditions
12:53 AM 37.9 °F 29.6 °F 28.0 °F 68% 30.29 in 10.0 mi North 13.8 mph - N/A   Clear
1:53 AM 37.0 °F 29.3 °F 28.0 °F 70% 30.32 in 10.0 mi North 11.5 mph - N/A   Clear
2:53 AM 35.6 °F 28.0 °F 26.6 °F 70% 30.33 in 10.0 mi North 10.4 mph - N/A   Clear
3:53 AM 33.1 °F 25.5 °F 27.0 °F 78% 30.38 in 10.0 mi NNW 9.2 mph - N/A   Clear
4:53 AM 33.1 °F 24.9 °F 27.0 °F 78% 30.39 in 10.0 mi NNW 10.4 mph - N/A   Clear
5:53 AM 32.0 °F 24.8 °F 26.1 °F 79% 30.42 in 10.0 mi NNW 8.1 mph - N/A   Clear
6:53 AM 30.0 °F 21.7 °F 26.1 °F 85% 30.45 in 10.0 mi NNW 9.2 mph - N/A   Clear
7:53 AM 28.9 °F 20.4 °F 25.0 °F 85% 30.47 in 10.0 mi NNW 9.2 mph - N/A   Clear
8:53 AM 34.0 °F 26.6 °F 27.0 °F 75% 30.50 in 10.0 mi NNW 9.2 mph - N/A   Clear
9:53 AM 39.9 °F 35.1 °F 28.9 °F 65% 30.53 in 10.0 mi North 6.9 mph - N/A   Clear
10:53 AM 44.1 °F 40.1 °F 30.9 °F 60% 30.53 in 10.0 mi North 6.9 mph - N/A   Clear
11:53 AM 48.0 °F - 30.9 °F 52% 30.51 in 10.0 mi NW 5.8 mph - N/A   Clear
12:53 PM 51.1 °F - 30.0 °F 44% 30.47 in 10.0 mi Variable 3.5 mph - N/A   Clear
1:53 PM 54.0 °F - 28.9 °F 38% 30.45 in 10.0 mi NW 4.6 mph - N/A   Clear
2:53 PM 54.0 °F - 28.0 °F 37% 30.43 in 10.0 mi Calm Calm - N/A   Clear
3:53 PM 55.0 °F - 28.9 °F 37% 30.44 in 10.0 mi WNW 3.5 mph - N/A   Partly Cloudy
4:53 PM 53.1 °F - 28.9 °F 40% 30.45 in 10.0 mi SSW 3.5 mph - N/A   Partly Cloudy
5:53 PM 45.0 °F 42.6 °F 28.0 °F 52% 30.46 in 10.0 mi South 4.6 mph - N/A   Clear
6:53 PM 43.0 °F 38.8 °F 28.0 °F 56% 30.46 in 10.0 mi SSE 6.9 mph - N/A   Clear
7:53 PM 37.0 °F - 27.0 °F 67% 30.47 in 10.0 mi North - - N/A   Clear
8:53 PM 34.0 °F 27.2 °F 26.1 °F 73% 30.47 in 10.0 mi South 8.1 mph - N/A   Clear
9:53 PM 33.1 °F 26.1 °F 27.0 °F 78% 30.45 in 10.0 mi South 8.1 mph - N/A   Clear
10:53 PM 30.9 °F 22.8 °F 25.0 °F 79% 30.44 in 10.0 mi South 9.2 mph - N/A   Clear
11:53 PM 32.0 °F 25.6 °F 26.1 °F 79% 30.43 in 10.0 mi South 6.9 mph - N/A   Clear